Station Historical Data
Daily Summary for January 14, 2017 Units:  Metric    English   Both
« Previous Day
Next Day »
Daily Weekly Monthly Yearly Custom
  High: Low: Average:
Temperature: 8.1 °C 1.8 °C 4.3 °C
Dew Point: 4.8 °C -0.3 °C 1.8 °C
Humidity: 95 % 67 % 84 %
Wind Speed: 20.9 km/h 0 km/h 0.6 km/h
Wind Gust: 25.7 km/h - -
Wind:- - SSE
Pressure: 1025.6 hPa 1021.9 hPa -
Precipitation: 0 mm    
Historical Graphs
 
 
Tabular Data for January 14, 2017
Time Temperature Dew Point Pressure Wind Wind Speed Wind Gust Humidity Rainfall Rate (Hourly) solar
00:01 4.2 °C 0.8 °C 1024.6 hPa ESE 17.7 km/h 25.7 km/h 79 % 0 mm 0.00 W/m2
00:06 4.1 °C 0.6 °C 1024.6 hPa ESE 20.9 km/h 20.9 km/h 78 % 0 mm 0.00 W/m2
00:11 4.1 °C 0.6 °C 1024.6 hPa East 8 km/h 24.1 km/h 78 % 0 mm 0.00 W/m2
00:16 4.1 °C 0.8 °C 1024.6 hPa Calm   9.7 km/h 79 % 0 mm 0.00 W/m2
00:21 4.1 °C 0.6 °C 1024.9 hPa Calm   1.6 km/h 78 % 0 mm 0.00 W/m2
00:26 4.1 °C 0.6 °C 1024.9 hPa Calm   1.6 km/h 78 % 0 mm 0.00 W/m2
00:31 4 °C 0.5 °C 1024.9 hPa Calm   1.6 km/h 78 % 0 mm 0.00 W/m2
00:36 3.9 °C 0.7 °C 1024.9 hPa Calm   1.6 km/h 79 % 0 mm 0.00 W/m2
00:41 3.9 °C 0.6 °C 1024.9 hPa Calm   1.6 km/h 79 % 0 mm 0.00 W/m2
00:46 3.8 °C 0.7 °C 1024.9 hPa Calm   1.6 km/h 80 % 0 mm 0.00 W/m2
00:51 3.8 °C 0.7 °C 1024.9 hPa Calm   1.6 km/h 80 % 0 mm 0.00 W/m2
00:56 3.7 °C 0.8 °C 1024.9 hPa Calm   1.6 km/h 81 % 0 mm 0.00 W/m2
01:01 3.7 °C 0.7 °C 1024.9 hPa Calm   1.6 km/h 81 % 0 mm 0.00 W/m2
01:06 3.6 °C 0.4 °C 1024.9 hPa Calm   1.6 km/h 80 % 0 mm 0.00 W/m2
01:11 3.5 °C 0.4 °C 1024.9 hPa Calm   1.6 km/h 80 % 0 mm 0.00 W/m2
01:16 3.5 °C 0.4 °C 1024.9 hPa Calm   1.6 km/h 80 % 0 mm 0.00 W/m2
01:21 3.4 °C 0.7 °C 1024.9 hPa Calm     82 % 0 mm 0.00 W/m2
01:26 3.4 °C 0.8 °C 1024.9 hPa Calm   1.6 km/h 83 % 0 mm 0.00 W/m2
01:31 3.3 °C 0.7 °C 1024.9 hPa ESE 8 km/h 8 km/h 83 % 0 mm 0.00 W/m2
01:36 3.3 °C 0.7 °C 1024.9 hPa ESE 11.3 km/h 19.3 km/h 83 % 0 mm 0.00 W/m2
01:41 3.2 °C 0.6 °C 1024.9 hPa Calm     83 % 0 mm 0.00 W/m2
01:46 3.2 °C 0.6 °C 1024.9 hPa Calm   1.6 km/h 83 % 0 mm 0.00 W/m2
01:51 3.1 °C 0.5 °C 1025.3 hPa Calm   17.7 km/h 83 % 0 mm 0.00 W/m2
01:56 3.1 °C 0.5 °C 1024.9 hPa Calm   1.6 km/h 83 % 0 mm 0.00 W/m2
02:01 3.1 °C 0.5 °C 1024.9 hPa Calm   1.6 km/h 83 % 0 mm 0.00 W/m2
02:06 3.1 °C 0.5 °C 1025.3 hPa Calm   17.7 km/h 83 % 0 mm 0.00 W/m2
02:11 3.1 °C 0.4 °C 1025.3 hPa Calm     83 % 0 mm 0.00 W/m2
02:16 3.1 °C 0.4 °C 1025.3 hPa Calm   1.6 km/h 83 % 0 mm 0.00 W/m2
02:21 3 °C 0.6 °C 1025.3 hPa Calm   1.6 km/h 84 % 0 mm 0.00 W/m2
02:26 3 °C 0.6 °C 1025.3 hPa Calm   12.9 km/h 84 % 0 mm 0.00 W/m2
02:31 2.9 °C 0.5 °C 1025.3 hPa Calm   17.7 km/h 84 % 0 mm 0.00 W/m2
02:36 2.9 °C 0.4 °C 1024.9 hPa Calm   17.7 km/h 84 % 0 mm 0.00 W/m2
02:41 2.9 °C 0.4 °C 1024.9 hPa Calm     84 % 0 mm 0.00 W/m2
02:46 2.8 °C 0.4 °C 1024.9 hPa Calm   1.6 km/h 84 % 0 mm 0.00 W/m2
02:51 2.8 °C 0.4 °C 1024.9 hPa Calm   19.3 km/h 84 % 0 mm 0.00 W/m2
03:01 2.9 °C 0.4 °C 1024.9 hPa Calm   1.6 km/h 84 % 0 mm 0.00 W/m2
03:06 2.9 °C 0.5 °C 1024.9 hPa Calm     84 % 0 mm 0.00 W/m2
03:11 3 °C 0.6 °C 1024.9 hPa Calm   1.6 km/h 84 % 0 mm 0.00 W/m2
03:16 3 °C 0.4 °C 1024.9 hPa Calm     83 % 0 mm 0.00 W/m2
03:21 3.1 °C 0.4 °C 1025.3 hPa Calm   1.6 km/h 83 % 0 mm 0.00 W/m2
03:26 3.1 °C 0.3 °C 1024.9 hPa Calm     82 % 0 mm 0.00 W/m2
03:31 3.1 °C 0.5 °C 1025.3 hPa East 1.6 km/h 1.6 km/h 83 % 0 mm 0.00 W/m2
03:36 3.1 °C 0.5 °C 1025.3 hPa Calm     83 % 0 mm 0.00 W/m2
03:41 3.1 °C 0.5 °C 1025.3 hPa Calm     83 % 0 mm 0.00 W/m2
03:46 3.1 °C 0.4 °C 1025.3 hPa Calm     83 % 0 mm 0.00 W/m2
03:51 3 °C 0.6 °C 1024.9 hPa Calm     84 % 0 mm 0.00 W/m2
03:56 3 °C 0.6 °C 1024.9 hPa Calm   1.6 km/h 84 % 0 mm 0.00 W/m2
04:01 2.9 °C 0.5 °C 1024.9 hPa Calm     84 % 0 mm 0.00 W/m2
04:06 2.8 °C 0.6 °C 1024.9 hPa Calm     85 % 0 mm 0.00 W/m2
04:11 2.8 °C 0.5 °C 1024.6 hPa Calm     85 % 0 mm 0.00 W/m2
04:16 2.7 °C 0.4 °C 1024.9 hPa Calm     85 % 0 mm 0.00 W/m2
04:21 2.6 °C 0.3 °C 1024.6 hPa Calm   1.6 km/h 85 % 0 mm 0.00 W/m2
04:26 2.5 °C 0.2 °C 1024.6 hPa Calm     85 % 0 mm 0.00 W/m2
04:31 2.4 °C 0.2 °C 1024.9 hPa Calm     85 % 0 mm 0.00 W/m2
04:36 2.4 °C 0.1 °C 1024.9 hPa Calm     85 % 0 mm 0.00 W/m2
04:41 2.3 °C 0.2 °C 1024.6 hPa Calm     86 % 0 mm 0.00 W/m2
04:46 2.3 °C 0 °C 1024.6 hPa Calm     85 % 0 mm 0.00 W/m2
04:51 2.2 °C -0.1 °C 1024.6 hPa Calm     85 % 0 mm 0.00 W/m2
04:56 2.2 °C 0.1 °C 1024.6 hPa Calm     86 % 0 mm 0.00 W/m2
05:01 2.2 °C 0.1 °C 1024.6 hPa Calm     86 % 0 mm 0.00 W/m2
05:06 2.2 °C 0.1 °C 1024.6 hPa Calm     86 % 0 mm 0.00 W/m2
05:11 2.2 °C 0.1 °C 1024.6 hPa Calm     86 % 0 mm 0.00 W/m2
05:16 2.2 °C 0.1 °C 1024.9 hPa Calm     86 % 0 mm 0.00 W/m2
05:21 2.2 °C -0.1 °C 1024.9 hPa Calm     85 % 0 mm 0.00 W/m2
05:26 2.2 °C 0.1 °C 1024.6 hPa Calm     86 % 0 mm 0.00 W/m2
05:31 2.3 °C 0.2 °C 1024.6 hPa Calm     86 % 0 mm 0.00 W/m2
05:37 2.3 °C 0.2 °C 1024.6 hPa Calm     86 % 0 mm 0.00 W/m2
05:42 2.2 °C 0.1 °C 1024.6 hPa Calm     86 % 0 mm 0.00 W/m2
05:47 2.2 °C 0.1 °C 1024.6 hPa Calm     86 % 0 mm 0.00 W/m2
05:52 2.2 °C 0.1 °C 1024.6 hPa Calm     86 % 0 mm 0.00 W/m2
05:57 2.2 °C 0.1 °C 1024.9 hPa Calm     86 % 0 mm 0.00 W/m2
06:02 2.2 °C -0.1 °C 1024.9 hPa Calm     85 % 0 mm 0.00 W/m2
06:07 2.2 °C -0.1 °C 1024.9 hPa Calm     85 % 0 mm 0.00 W/m2
06:12 2.1 °C -0.2 °C 1024.9 hPa Calm     85 % 0 mm 0.00 W/m2
06:17 2.1 °C -0.2 °C 1024.9 hPa Calm     85 % 0 mm 0.00 W/m2
06:22 2.1 °C -0.2 °C 1024.9 hPa Calm     85 % 0 mm 0.00 W/m2
06:27 2.1 °C -0.2 °C 1024.9 hPa Calm     85 % 0 mm 0.00 W/m2
06:32 2.1 °C -0.1 °C 1024.9 hPa Calm     86 % 0 mm 0.00 W/m2
06:37 2 °C -0.1 °C 1024.9 hPa Calm     86 % 0 mm 0.00 W/m2
06:42 2 °C -0.1 °C 1024.9 hPa Calm     86 % 0 mm 0.00 W/m2
06:47 1.9 °C -0.2 °C 1024.9 hPa Calm     86 % 0 mm 0.00 W/m2
06:52 1.9 °C -0.2 °C 1024.6 hPa Calm     86 % 0 mm 0.00 W/m2
06:57 1.9 °C -0.2 °C 1024.6 hPa Calm     86 % 0 mm 0.00 W/m2
07:02 1.9 °C -0.2 °C 1024.6 hPa Calm     86 % 0 mm 0.00 W/m2
07:07 1.8 °C -0.3 °C 1024.6 hPa Calm   1.6 km/h 86 % 0 mm 0.00 W/m2
07:12 1.8 °C -0.3 °C 1024.6 hPa Calm   1.6 km/h 86 % 0 mm 0.00 W/m2
07:17 1.8 °C -0.3 °C 1024.6 hPa Calm   1.6 km/h 86 % 0 mm 5.00 W/m2
07:22 1.8 °C -0.3 °C 1024.6 hPa East 1.6 km/h 1.6 km/h 86 % 0 mm 7.00 W/m2
07:27 1.8 °C -0.3 °C 1024.9 hPa East 9.7 km/h 17.7 km/h 86 % 0 mm 11.00 W/m2
07:31 1.8 °C -0.3 °C 1024.9 hPa Calm   19.3 km/h 86 % 0 mm 12.00 W/m2
07:36 1.8 °C -0.3 °C 1024.9 hPa East 1.6 km/h 3.2 km/h 86 % 0 mm 14.00 W/m2
07:41 1.9 °C -0.3 °C 1024.9 hPa Calm   1.6 km/h 85 % 0 mm 18.00 W/m2
07:46 1.9 °C -0.3 °C 1024.9 hPa Calm   1.6 km/h 85 % 0 mm 26.00 W/m2
07:51 2 °C -0.3 °C 1024.9 hPa Calm   1.6 km/h 85 % 0 mm 37.00 W/m2
07:56 2.1 °C -0.2 °C 1024.9 hPa ESE 1.6 km/h 17.7 km/h 85 % 0 mm 49.00 W/m2
08:01 2.1 °C -0.2 °C 1024.6 hPa ESE 1.6 km/h 14.5 km/h 85 % 0 mm 63.00 W/m2
08:06 2.2 °C -0.1 °C 1024.6 hPa Calm   19.3 km/h 85 % 0 mm 77.00 W/m2
08:11 2.2 °C -0.1 °C 1024.6 hPa East 3.2 km/h 14.5 km/h 85 % 0 mm 91.00 W/m2
08:16 2.3 °C 0.2 °C 1024.9 hPa ESE 6.4 km/h 19.3 km/h 86 % 0 mm 107.00 W/m2
08:21 2.3 °C 0.2 °C 1024.9 hPa Calm   17.7 km/h 86 % 0 mm 120.00 W/m2
08:26 2.4 °C 0.1 °C 1024.9 hPa Calm   17.7 km/h 85 % 0 mm 141.00 W/m2
08:31 2.4 °C 0.2 °C 1024.9 hPa Calm   19.3 km/h 85 % 0 mm 116.00 W/m2
08:36 2.5 °C 0.2 °C 1024.9 hPa ESE 3.2 km/h 22.5 km/h 85 % 0 mm 158.00 W/m2
08:41 2.6 °C 0.3 °C 1024.9 hPa Calm   17.7 km/h 85 % 0 mm 171.00 W/m2
08:46 2.7 °C 0.4 °C 1024.9 hPa Calm   19.3 km/h 85 % 0 mm 183.00 W/m2
08:51 2.8 °C 0.3 °C 1024.9 hPa Calm   17.7 km/h 84 % 0 mm 230.00 W/m2
08:56 2.8 °C 0.6 °C 1024.9 hPa East 6.4 km/h 6.4 km/h 85 % 0 mm 248.00 W/m2
09:01 2.9 °C 0.7 °C 1024.9 hPa ESE 3.2 km/h 9.7 km/h 85 % 0 mm 264.00 W/m2
09:06 3 °C 0.9 °C 1025.3 hPa Calm   1.6 km/h 86 % 0 mm 281.00 W/m2
09:11 3.1 °C 0.8 °C 1025.3 hPa Calm   1.6 km/h 85 % 0 mm 297.00 W/m2
09:16 3.2 °C 0.7 °C 1025.3 hPa Calm     84 % 0 mm 315.00 W/m2
09:21 3.2 °C 0.4 °C 1025.3 hPa Calm     82 % 0 mm 330.00 W/m2
09:26 3.4 °C 0.5 °C 1025.6 hPa Calm     81 % 0 mm 345.00 W/m2
09:31 3.7 °C 0.2 °C 1025.6 hPa Calm     78 % 0 mm 357.00 W/m2
09:36 3.9 °C 0.3 °C 1025.6 hPa Calm     77 % 0 mm 366.00 W/m2
09:41 4.2 °C 0.6 °C 1025.3 hPa Calm     77 % 0 mm 380.00 W/m2
09:46 4.3 °C 0.8 °C 1025.3 hPa Calm     78 % 0 mm 387.00 W/m2
09:51 4.4 °C 1.2 °C 1025.3 hPa Calm     80 % 0 mm 403.00 W/m2
09:56 4.4 °C 0.6 °C 1025.3 hPa Calm     76 % 0 mm 413.00 W/m2
10:01 4.5 °C 0.8 °C 1025.3 hPa Calm     77 % 0 mm 424.00 W/m2
10:06 4.6 °C 0.9 °C 1025.3 hPa Calm     77 % 0 mm 434.00 W/m2
10:11 4.7 °C 1.2 °C 1025.3 hPa Calm     78 % 0 mm 443.00 W/m2
10:16 4.7 °C 1.3 °C 1025.3 hPa Calm     79 % 0 mm 452.00 W/m2
10:21 4.7 °C 1.6 °C 1025.3 hPa Calm     80 % 0 mm 461.00 W/m2
10:26 4.8 °C 1.4 °C 1025.3 hPa ENE 1.6 km/h 1.6 km/h 79 % 0 mm 468.00 W/m2
10:31 4.9 °C 0.9 °C 1025.6 hPa Calm   1.6 km/h 75 % 0 mm 476.00 W/m2
10:36 5.1 °C 0.8 °C 1025.3 hPa Calm   1.6 km/h 74 % 0 mm 483.00 W/m2
10:41 5.3 °C 0.7 °C 1025.3 hPa Calm   1.6 km/h 72 % 0 mm 489.00 W/m2
10:46 5.4 °C 1.2 °C 1025.3 hPa Calm   1.6 km/h 74 % 0 mm 497.00 W/m2
10:51 5.4 °C 1.2 °C 1025.3 hPa NNW 1.6 km/h 1.6 km/h 74 % 0 mm 504.00 W/m2
10:56 5.4 °C 0.8 °C 1025.3 hPa Calm   1.6 km/h 72 % 0 mm 512.00 W/m2
11:01 5.5 °C 0.8 °C 1025.3 hPa Calm   1.6 km/h 72 % 0 mm 515.00 W/m2
11:06 5.6 °C 1.2 °C 1025.3 hPa Calm   1.6 km/h 73 % 0 mm 520.00 W/m2
11:11 5.7 °C 1.6 °C 1024.9 hPa NNW 1.6 km/h 1.6 km/h 75 % 0 mm 526.00 W/m2
11:17 5.7 °C 1.4 °C 1024.9 hPa Calm   1.6 km/h 74 % 0 mm 531.00 W/m2
11:22 5.8 °C 1.5 °C 1024.9 hPa Calm     74 % 0 mm 536.00 W/m2
11:27 5.8 °C 1.6 °C 1024.9 hPa Calm   1.6 km/h 74 % 0 mm 538.00 W/m2
11:32 5.9 °C 2.1 °C 1024.9 hPa Calm   1.6 km/h 76 % 0 mm 541.00 W/m2
11:37 6 °C 1.7 °C 1024.6 hPa Calm   1.6 km/h 74 % 0 mm 547.00 W/m2
11:42 6.1 °C 1.2 °C 1024.6 hPa Calm   1.6 km/h 71 % 0 mm 548.00 W/m2
11:47 6.2 °C 1.7 °C 1024.6 hPa Calm   1.6 km/h 73 % 0 mm 548.00 W/m2
11:52 6.2 °C 1.7 °C 1024.3 hPa Calm     73 % 0 mm 552.00 W/m2
11:57 6.3 °C 2.2 °C 1024.3 hPa Calm   1.6 km/h 75 % 0 mm 552.00 W/m2
12:02 6.4 °C 2.3 °C 1024.3 hPa Calm   1.6 km/h 75 % 0 mm 554.00 W/m2
12:07 6.4 °C 2.3 °C 1024.3 hPa Calm   1.6 km/h 75 % 0 mm 555.00 W/m2
12:12 6.5 °C 2.2 °C 1023.9 hPa Calm   1.6 km/h 74 % 0 mm 555.00 W/m2
12:17 6.6 °C 2.5 °C 1023.9 hPa Calm   1.6 km/h 75 % 0 mm 555.00 W/m2
12:22 6.7 °C 2.4 °C 1023.9 hPa Calm   1.6 km/h 74 % 0 mm 554.00 W/m2
12:27 6.8 °C 2.3 °C 1023.9 hPa Calm   1.6 km/h 73 % 0 mm 552.00 W/m2
12:32 7 °C 2.5 °C 1023.9 hPa Calm   1.6 km/h 73 % 0 mm 550.00 W/m2
12:37 7.1 °C 2.6 °C 1023.9 hPa Calm   1.6 km/h 73 % 0 mm 547.00 W/m2
12:42 7.2 °C 2.5 °C 1023.6 hPa Calm   1.6 km/h 72 % 0 mm 545.00 W/m2
12:47 7.3 °C 2.8 °C 1023.6 hPa Calm   1.6 km/h 73 % 0 mm 541.00 W/m2
12:52 7.3 °C 2.6 °C 1023.6 hPa NW 1.6 km/h 1.6 km/h 72 % 0 mm 540.00 W/m2
12:57 7.4 °C 2.7 °C 1023.2 hPa NW 1.6 km/h 1.6 km/h 72 % 0 mm 534.00 W/m2
13:02 7.4 °C 2.9 °C 1023.2 hPa Calm   1.6 km/h 73 % 0 mm 531.00 W/m2
13:07 7.4 °C 2.7 °C 1023.2 hPa Calm   1.6 km/h 72 % 0 mm 527.00 W/m2
13:12 7.4 °C 3.1 °C 1023.2 hPa Calm     74 % 0 mm 522.00 W/m2
13:17 7.6 °C 3.2 °C 1023.2 hPa Calm   1.6 km/h 74 % 0 mm 515.00 W/m2
13:22 7.6 °C 2.5 °C 1022.9 hPa NW 1.6 km/h 1.6 km/h 70 % 0 mm 510.00 W/m2
13:27 7.7 °C 2.6 °C 1022.9 hPa Calm   1.6 km/h 70 % 0 mm 504.00 W/m2
13:32 7.7 °C 2.6 °C 1022.9 hPa NW 1.6 km/h 1.6 km/h 70 % 0 mm 496.00 W/m2
13:37 7.8 °C 3.1 °C 1022.9 hPa Calm   1.6 km/h 72 % 0 mm 489.00 W/m2
13:42 7.8 °C 2.5 °C 1022.9 hPa NW 1.6 km/h 1.6 km/h 69 % 0 mm 482.00 W/m2
13:47 7.9 °C 2.2 °C 1022.9 hPa Calm   1.6 km/h 67 % 0 mm 475.00 W/m2
13:52 7.9 °C 2.6 °C 1022.6 hPa Calm   1.6 km/h 69 % 0 mm 466.00 W/m2
13:57 8 °C 3.3 °C 1022.6 hPa Calm   1.6 km/h 72 % 0 mm 459.00 W/m2
14:03 8 °C 2.7 °C 1022.6 hPa NW 1.6 km/h 1.6 km/h 69 % 0 mm 452.00 W/m2
14:08 8 °C 2.7 °C 1022.6 hPa Calm   1.6 km/h 69 % 0 mm 441.00 W/m2
14:13 8 °C 2.7 °C 1022.6 hPa Calm   1.6 km/h 69 % 0 mm 432.00 W/m2
14:18 8 °C 2.2 °C 1022.6 hPa Calm     67 % 0 mm 422.00 W/m2
14:23 8.1 °C 2.5 °C 1022.2 hPa Calm     68 % 0 mm 411.00 W/m2
14:28 8.1 °C 3.5 °C 1022.2 hPa Calm     73 % 0 mm 403.00 W/m2
14:33 8 °C 3.1 °C 1022.2 hPa Calm     71 % 0 mm 390.00 W/m2
14:38 8 °C 2.9 °C 1022.2 hPa Calm     70 % 0 mm 378.00 W/m2
14:43 8 °C 2.9 °C 1022.2 hPa Calm     70 % 0 mm 369.00 W/m2
14:48 8.1 °C 3.1 °C 1022.2 hPa Calm     71 % 0 mm 357.00 W/m2
14:53 8.1 °C 3.3 °C 1022.2 hPa Calm     72 % 0 mm 343.00 W/m2
14:58 8.1 °C 3.7 °C 1022.2 hPa Calm     74 % 0 mm 329.00 W/m2
15:03 8.1 °C 3.7 °C 1022.2 hPa Calm     74 % 0 mm 316.00 W/m2
15:08 8.1 °C 3.9 °C 1022.2 hPa Calm     75 % 0 mm 304.00 W/m2
15:13 8.1 °C 3.9 °C 1022.6 hPa Calm     75 % 0 mm 290.00 W/m2
15:18 8.1 °C 4.1 °C 1022.6 hPa Calm     76 % 0 mm 278.00 W/m2
15:23 8 °C 3.7 °C 1022.6 hPa Calm     74 % 0 mm 262.00 W/m2
15:28 7.9 °C 3.8 °C 1022.6 hPa Calm     75 % 0 mm 248.00 W/m2
15:33 7.9 °C 3.7 °C 1022.6 hPa Calm     75 % 0 mm 230.00 W/m2
15:38 7.9 °C 4.1 °C 1022.6 hPa WNW 1.6 km/h 1.6 km/h 77 % 0 mm 211.00 W/m2
15:43 7.9 °C 4.3 °C 1022.6 hPa Calm   1.6 km/h 78 % 0 mm 195.00 W/m2
15:48 7.8 °C 4.6 °C 1022.6 hPa WNW 1.6 km/h 3.2 km/h 80 % 0 mm 172.00 W/m2
15:53 7.8 °C 4.7 °C 1022.6 hPa Calm   1.6 km/h 81 % 0 mm 156.00 W/m2
15:58 7.7 °C 4.6 °C 1022.6 hPa Calm   1.6 km/h 81 % 0 mm 137.00 W/m2
16:03 7.6 °C 4.6 °C 1022.6 hPa Calm   1.6 km/h 81 % 0 mm 120.00 W/m2
16:08 7.5 °C 4.4 °C 1022.6 hPa Calm   1.6 km/h 81 % 0 mm 105.00 W/m2
16:13 7.4 °C 4.7 °C 1022.6 hPa Calm   1.6 km/h 83 % 0 mm 88.00 W/m2
16:18 7.3 °C 4.6 °C 1022.6 hPa Calm   1.6 km/h 83 % 0 mm 72.00 W/m2
16:23 7.2 °C 4.7 °C 1022.6 hPa Calm   1.6 km/h 84 % 0 mm 58.00 W/m2
16:28 7.1 °C 4.7 °C 1022.6 hPa Calm     85 % 0 mm 46.00 W/m2
16:33 7 °C 4.7 °C 1022.2 hPa Calm     85 % 0 mm 33.00 W/m2
16:38 6.9 °C 4.7 °C 1022.2 hPa Calm     86 % 0 mm 25.00 W/m2
16:43 6.8 °C 4.8 °C 1022.2 hPa Calm     87 % 0 mm 16.00 W/m2
16:48 6.6 °C 4.6 °C 1022.2 hPa Calm     87 % 0 mm 12.00 W/m2
16:53 6.5 °C 4.5 °C 1022.2 hPa Calm     87 % 0 mm 9.00 W/m2
16:58 6.3 °C 4.5 °C 1022.2 hPa Calm     88 % 0 mm 7.00 W/m2
17:03 6.2 °C 4.4 °C 1022.2 hPa Calm     88 % 0 mm 5.00 W/m2
17:08 6.1 °C 4.2 °C 1022.2 hPa Calm     88 % 0 mm 0.00 W/m2
17:13 5.9 °C 4.2 °C 1022.2 hPa Calm     89 % 0 mm 0.00 W/m2
17:18 5.8 °C 4.1 °C 1022.2 hPa Calm     89 % 0 mm 0.00 W/m2
17:23 5.7 °C 4 °C 1022.2 hPa Calm     89 % 0 mm 0.00 W/m2
17:28 5.6 °C 3.9 °C 1022.2 hPa Calm     89 % 0 mm 0.00 W/m2
17:33 5.4 °C 3.9 °C 1022.6 hPa Calm     90 % 0 mm 0.00 W/m2
17:38 5.3 °C 3.8 °C 1022.6 hPa Calm     90 % 0 mm 0.00 W/m2
17:43 5.1 °C 3.6 °C 1022.6 hPa Calm     90 % 0 mm 0.00 W/m2
17:48 5 °C 3.5 °C 1022.6 hPa Calm     90 % 0 mm 0.00 W/m2
17:53 4.9 °C 3.6 °C 1022.6 hPa Calm     91 % 0 mm 0.00 W/m2
17:58 4.8 °C 3.4 °C 1022.6 hPa Calm     91 % 0 mm 0.00 W/m2
18:03 4.7 °C 3.3 °C 1022.6 hPa Calm     91 % 0 mm 0.00 W/m2
18:08 4.4 °C 3.1 °C 1022.6 hPa Calm     91 % 0 mm 0.00 W/m2
18:13 4.3 °C 3.2 °C 1022.6 hPa Calm     92 % 0 mm 0.00 W/m2
18:18 4.2 °C 3.1 °C 1022.6 hPa Calm     92 % 0 mm 0.00 W/m2
18:23 4.2 °C 3 °C 1022.6 hPa Calm     92 % 0 mm 0.00 W/m2
18:29 4.1 °C 3.1 °C 1022.6 hPa Calm     93 % 0 mm 0.00 W/m2
18:34 4.1 °C 3.1 °C 1022.9 hPa Calm     93 % 0 mm 0.00 W/m2
18:39 3.9 °C 2.9 °C 1022.9 hPa Calm     93 % 0 mm 0.00 W/m2
18:44 3.9 °C 2.9 °C 1022.6 hPa Calm     93 % 0 mm 0.00 W/m2
18:49 3.8 °C 2.8 °C 1022.9 hPa Calm     93 % 0 mm 0.00 W/m2
18:54 3.8 °C 2.8 °C 1022.6 hPa Calm     93 % 0 mm 0.00 W/m2
18:59 3.7 °C 2.8 °C 1022.6 hPa Calm     94 % 0 mm 0.00 W/m2
19:04 3.7 °C 2.8 °C 1022.6 hPa Calm     94 % 0 mm 0.00 W/m2
19:09 3.7 °C 2.8 °C 1022.9 hPa Calm     94 % 0 mm 0.00 W/m2
19:14 3.7 °C 2.8 °C 1022.9 hPa Calm     94 % 0 mm 0.00 W/m2
19:19 3.6 °C 2.7 °C 1022.9 hPa Calm     94 % 0 mm 0.00 W/m2
19:24 3.6 °C 2.7 °C 1022.9 hPa Calm     94 % 0 mm 0.00 W/m2
19:29 3.6 °C 2.7 °C 1022.9 hPa Calm     94 % 0 mm 0.00 W/m2
19:34 3.6 °C 2.7 °C 1022.9 hPa Calm     94 % 0 mm 0.00 W/m2
19:39 3.6 °C 2.7 °C 1022.9 hPa Calm     94 % 0 mm 0.00 W/m2
19:44 3.6 °C 2.7 °C 1022.9 hPa Calm     94 % 0 mm 0.00 W/m2
19:49 3.6 °C 2.7 °C 1022.9 hPa Calm     94 % 0 mm 0.00 W/m2
19:55 3.6 °C 2.7 °C 1022.9 hPa Calm     94 % 0 mm 0.00 W/m2
20:00 3.6 °C 2.7 °C 1022.9 hPa Calm     94 % 0 mm 0.00 W/m2
20:05 3.6 °C 2.7 °C 1022.9 hPa Calm     94 % 0 mm 0.00 W/m2
20:10 3.6 °C 2.9 °C 1022.9 hPa East 1.6 km/h 1.6 km/h 95 % 0 mm 0.00 W/m2
20:15 3.6 °C 2.9 °C 1022.9 hPa Calm   3.2 km/h 95 % 0 mm 0.00 W/m2
20:20 3.7 °C 2.9 °C 1022.9 hPa Calm   1.6 km/h 95 % 0 mm 0.00 W/m2
20:25 3.7 °C 2.9 °C 1022.9 hPa Calm   3.2 km/h 95 % 0 mm 0.00 W/m2
20:30 3.7 °C 3 °C 1022.9 hPa Calm   3.2 km/h 95 % 0 mm 0.00 W/m2
20:35 3.8 °C 3.1 °C 1022.9 hPa East 1.6 km/h 3.2 km/h 95 % 0 mm 0.00 W/m2
20:40 3.8 °C 3.1 °C 1022.6 hPa Calm   3.2 km/h 95 % 0 mm 0.00 W/m2
20:45 3.8 °C 3.1 °C 1022.6 hPa East 1.6 km/h 3.2 km/h 95 % 0 mm 0.00 W/m2
20:50 3.8 °C 3.1 °C 1022.9 hPa East 1.6 km/h 3.2 km/h 95 % 0 mm 0.00 W/m2
20:55 3.8 °C 3.1 °C 1022.6 hPa Calm   1.6 km/h 95 % 0 mm 0.00 W/m2
21:00 3.8 °C 3.1 °C 1022.6 hPa Calm     95 % 0 mm 0.00 W/m2
21:05 3.8 °C 3.1 °C 1022.6 hPa East 3.2 km/h 6.4 km/h 95 % 0 mm 0.00 W/m2
21:10 3.8 °C 3.1 °C 1022.6 hPa Calm   8 km/h 95 % 0 mm 0.00 W/m2
21:15 3.7 °C 3 °C 1022.6 hPa East 1.6 km/h 3.2 km/h 95 % 0 mm 0.00 W/m2
21:20 3.7 °C 3 °C 1022.6 hPa East 1.6 km/h 9.7 km/h 95 % 0 mm 0.00 W/m2
21:25 3.7 °C 2.9 °C 1022.6 hPa East 3.2 km/h 8 km/h 95 % 0 mm 0.00 W/m2
21:30 3.7 °C 2.9 °C 1022.6 hPa Calm   8 km/h 95 % 0 mm 0.00 W/m2
21:35 3.7 °C 2.9 °C 1022.6 hPa Calm   6.4 km/h 95 % 0 mm 0.00 W/m2
21:40 3.7 °C 2.9 °C 1022.6 hPa Calm   11.3 km/h 95 % 0 mm 0.00 W/m2
21:45 3.7 °C 2.9 °C 1022.6 hPa East 1.6 km/h 14.5 km/h 95 % 0 mm 0.00 W/m2
21:50 3.7 °C 2.9 °C 1022.6 hPa East 1.6 km/h 11.3 km/h 95 % 0 mm 0.00 W/m2
21:55 3.7 °C 2.9 °C 1022.6 hPa East 6.4 km/h 9.7 km/h 95 % 0 mm 0.00 W/m2
22:00 3.7 °C 2.9 °C 1022.6 hPa East 3.2 km/h 9.7 km/h 95 % 0 mm 0.00 W/m2
22:05 3.7 °C 3 °C 1022.2 hPa Calm   8 km/h 95 % 0 mm 0.00 W/m2
22:10 3.7 °C 2.9 °C 1022.6 hPa East 6.4 km/h 8 km/h 95 % 0 mm 0.00 W/m2
22:15 3.7 °C 2.9 °C 1022.2 hPa Calm   11.3 km/h 95 % 0 mm 0.00 W/m2
22:20 3.6 °C 2.9 °C 1022.2 hPa ESE 3.2 km/h 9.7 km/h 95 % 0 mm 0.00 W/m2
22:25 3.6 °C 2.8 °C 1022.2 hPa Calm   11.3 km/h 95 % 0 mm 0.00 W/m2
22:30 3.6 °C 2.8 °C 1022.2 hPa Calm   11.3 km/h 95 % 0 mm 0.00 W/m2
22:35 3.5 °C 2.8 °C 1022.2 hPa Calm   9.7 km/h 95 % 0 mm 0.00 W/m2
22:40 3.5 °C 2.8 °C 1022.2 hPa East 6.4 km/h 9.7 km/h 95 % 0 mm 0.00 W/m2
22:45 3.5 °C 2.6 °C 1022.2 hPa Calm   6.4 km/h 94 % 0 mm 0.00 W/m2
22:50 3.5 °C 2.6 °C 1022.2 hPa Calm   9.7 km/h 94 % 0 mm 0.00 W/m2
22:55 3.4 °C 2.6 °C 1022.2 hPa Calm   6.4 km/h 94 % 0 mm 0.00 W/m2
23:00 3.4 °C 2.5 °C 1022.2 hPa Calm   3.2 km/h 94 % 0 mm 0.00 W/m2
23:05 3.3 °C 2.4 °C 1022.2 hPa Calm     94 % 0 mm 0.00 W/m2
23:10 3.2 °C 2.3 °C 1022.2 hPa Calm     94 % 0 mm 0.00 W/m2
23:15 3.2 °C 2.3 °C 1022.2 hPa Calm     94 % 0 mm 0.00 W/m2
23:20 3.1 °C 2.2 °C 1021.9 hPa Calm     94 % 0 mm 0.00 W/m2
23:25 3.1 °C 2.2 °C 1021.9 hPa Calm     94 % 0 mm 0.00 W/m2
23:30 3 °C 2.1 °C 1021.9 hPa Calm     94 % 0 mm 0.00 W/m2
23:35 2.9 °C 2 °C 1021.9 hPa Calm     94 % 0 mm 0.00 W/m2
23:40 2.8 °C 1.9 °C 1021.9 hPa Calm     94 % 0 mm 0.00 W/m2
23:45 2.7 °C 1.7 °C 1021.9 hPa Calm     93 % 0 mm 0.00 W/m2
23:50 2.7 °C 1.7 °C 1022.2 hPa Calm     93 % 0 mm 0.00 W/m2
23:55 2.6 °C 1.6 °C 1021.9 hPa Calm     93 % 0 mm 0.00 W/m2
Juneau County Weather
Compliments of Weather Underground - 4.5 mb
 WU-history PHP script courtesy of   Juneau County Weather.
powered by Cumulus v1.9.3 (1059)
Ambient Weather VWS v14.00
Top Contact Website Map Copyright © 2007 - 2018 Foresthillweather.com Never base important decisions on this or any weather information obtained from the Internet